Home > Weather > Lillesand > Past weeks

Flag for Norway Past Weather in Lillesand, Norway — Yesterday and Last 2 Weeks

Now
65 °F

Mild.


Feels Like: 65 °F
Forecast: 53 / 63 °F
Wind: 6 mph from Northwest

Location: Kristiansand / Kjevik

Current Time: Jul 30, 2016 at 7:02:40 PM

Latest Report: Jul 30, 2016 at 6:00 PM


Visibility: N/A

Pressure: 29.75 "Hg

Humidity: 58%

Dew Point: 50 °F

Location of LillesandLocation

Past Weather in Lillesand — Graph

°F

Lillesand Temperature Yesterday

Maximum temperature yesterday: 61 °F (at 12:00 PM)
Minimum temperature yesterday: 55 °F (at 2:00 AM)
Average temperature yesterday: 58 °F

High & Low Weather Summary for the Past Weeks

 TemperatureHumidityPressure
High75 °F (Jul 24, 1:00 PM)99% (Jul 30, 6:00 AM)30.14 "Hg (Jul 30, 6:00 AM)
Low49 °F (Jul 30, 6:00 AM)43% (Jul 16, 6:00 PM)29.72 "Hg (Jul 30, 4:00 AM)
Average63 °F80%29.97 "Hg
* Reported Jul 15 6:00 PM — Jul 30 6:00 PM, Lillesand, Weather by CustomWeather, © 2016

Note: Actual official high and low records may vary slightly from our data, if they occured in-between our weather recording intervals... More about our weather records

Advertising

Lillesand Weather History for the Previous 24 Hours

Scroll right to see more
 ConditionsComfort  
Time TempWeatherWind HumidityBarometerVisibility
6:00 PM
Sat, Jul 30
65 °FMild.6 mph58%29.75 "HgN/A
5:00 PM66 °FMild.7 mph58%29.74 "HgN/A
4:00 PM66 °FMild.6 mph55%29.74 "HgN/A
3:00 PM65 °FMild.6 mph55%29.74 "HgN/A
2:00 PM66 °FMild.6 mph61%29.73 "HgN/A
1:00 PM66 °FMild.5 mph59%29.73 "HgN/A
12:00 PM64 °FMild.6 mph61%29.73 "HgN/A
11:00 AM63 °FMild.5 mph63%29.73 "HgN/A
10:00 AM62 °FCool.3 mph67%29.73 "HgN/A
9:00 AM59 °FCool.1 mph74%29.73 "HgN/A
8:00 AM55 °FCool.2 mph86%29.72 "HgN/A
7:00 AM51 °FCool.2 mph97%29.72 "HgN/A
6:00 AM49 °FCool.2 mph99%29.72 "HgN/A
5:00 AM49 °FCool.1 mph97%29.72 "HgN/A
4:00 AM51 °FCool.1 mph97%29.72 "HgN/A
3:00 AM53 °FCool.1 mph96%29.72 "HgN/A
2:00 AM53 °FCool.1 mph97%29.72 "HgN/A
1:00 AM56 °FCool.2 mph94%29.72 "HgN/A
12:00 AM57 °FCool.2 mph94%29.72 "HgN/A
11:00 PM
Fri, Jul 29
57 °FCool.2 mph93%29.72 "HgN/A
10:00 PM58 °FCool.2 mph91%29.73 "HgN/A
9:00 PM58 °FCool.2 mph90%29.73 "HgN/A
8:00 PM58 °FCool.2 mph88%29.73 "HgN/A
7:00 PM59 °FCool.3 mph88%29.74 "HgN/A
Weather by CustomWeather, © 2016

See weather overviewHow to use our weather pages